[[{"header":{"parameterUnit":"m.s-1","parameterCategory":2,"la1":30.2991,"la2":30.254,"lo1":-89.0895,"lo2":-89.0444,"dy":0.0017,"dx":0.0017,"nx":28,"ny":28,"refTime":"2024-04-26T03:00:00:Z","depth":"0","parameterNumber":2,"parameterNumberName":"U-component_of_CURRENTS"},"data":[0,0,0,0,0,0,0,0,0,0,0,0,0,0,0,0,0,0,0,0,0,0,0,0,0,0,0,0,0,0,0,0,0,0,0,0,0,0,0,0,0,0,0,0,0,0,0,0,0,0,0,0,0,0,0,0,0,0,0.2676,0.2677,0,0.2721,0.2722,0.2722,0.2708,0.2707,0.2706,0.2705,0.2726,0.2728,0.2729,0,0,0,0,0,0,0,0,0,0,0,0,0,0.2597,0.2598,0.2676,0.2677,0.2677,0.2721,0.2722,0.2722,0.2708,0.2707,0.2706,0.2705,0.2726,0.2727,0.2729,0,0,0,0,0,0,0,0,0,0,0,0,0,0.2635,0.2599,0.2676,0.2676,0.2677,0.2721,0.2722,0.2722,0.2708,0.2707,0.2706,0.2704,0.2725,0.2727,0.2729,0.2769,0,0,0.2736,0.2737,0,0,0,0,0,0,0,0,0.2633,0.2638,0.2675,0.2676,0.2677,0.2708,0.2702,0.2737,0.2709,0.2695,0.2705,0.2704,0.272,0.2722,0.2733,0.277,0.2771,0.2736,0.2737,0.2738,0.2739,0,0,0,0,0,0,0,0.263,0.2636,0.2693,0.2676,0.2677,0.2681,0.2684,0.2708,0.2713,0.2696,0.2696,0.2702,0.2719,0.2731,0.2733,0.2771,0.2736,0.2738,0.2739,0.274,0.2824,0.2825,0,0,0,0,0,0,0.2627,0.2633,0.2692,0.2695,0.2652,0.2683,0.2687,0.2699,0.2714,0.2715,0.2704,0.2702,0.2728,0.2731,0.2734,0.2793,0.2738,0.274,0.2741,0.2823,0.2825,0.2826,0,0,0,0,0,0,0.2625,0.2632,0.269,0.2665,0.2673,0.2686,0.2699,0.27,0.2714,0.2719,0.272,0.2716,0.2727,0.2731,0.2751,0.2793,0.2741,0.2743,0.2822,0.2824,0.2825,0.2905,0,0,0,0,0,0,0.2623,0.2631,0.264,0.2665,0.2674,0.2727,0.2701,0.2702,0.2721,0.2719,0.2731,0.2731,0.2726,0.2748,0.2753,0.2795,0.2745,0.2821,0.2823,0.2825,0.2901,0.2909,0.2915,0,0,0,0,0,0.262,0.2638,0.264,0.2647,0.2686,0.2728,0.2734,0.2737,0.2723,0.2742,0.2735,0.273,0.2763,0.275,0.2756,0.28,0.282,0.2822,0.2825,0.2897,0.2907,0.2915,0,0,0,0,0,0,0.2601,0.2639,0.2642,0.2668,0.2701,0.2726,0.2744,0.2746,0.2759,0.2752,0.2746,0.2747,0.2783,0.2775,0.2761,0.2826,0.2791,0.2794,0.2844,0.2853,0.2861,0.2867,0.2746,0,0,0,0,0,0.2605,0.263,0.2665,0.2686,0.2706,0.2727,0.2743,0.2751,0.2765,0.2769,0.2773,0.2777,0.28,0.281,0.2824,0.2863,0.2858,0.2892,0.29,0.2906,0.2913,0.2929,0.2939,0.2833,0.2833,0.2833,0,0,0.26,0.2626,0.2637,0.2685,0.2708,0.2745,0.2734,0.2769,0.2797,0.2771,0.2802,0.2807,0.2814,0.2855,0.2871,0.2853,0.2936,0.2909,0.2915,0.2918,0.2933,0.2943,0.2952,0.2835,0.2834,0.2834,0,0,0.2615,0.2634,0.2665,0.2701,0.2747,0.2761,0.2774,0.2808,0.2824,0.2856,0.2847,0.2873,0.2895,0.2917,0.2929,0.2985,0.2974,0.299,0.3038,0.3054,0.3063,0.307,0.309,0.3099,0.2993,0.2994,0.2994,0,0.2608,0.2649,0.268,0.2727,0.2749,0.277,0.2805,0.2838,0.287,0.2887,0.287,0.2917,0.2929,0.2988,0.3009,0.3007,0.3007,0.3007,0.3065,0.3072,0.3079,0.3096,0.3105,0.2998,0.2997,0.2997,0.2996,0,0.265,0.2686,0.2711,0.2768,0.2801,0.2836,0.2882,0.2909,0.2916,0.2943,0.2995,0.301,0.3034,0.3054,0.3053,0.3118,0.3101,0.3074,0.3045,0.3094,0.3109,0.3117,0.3004,0.3002,0.3001,0.3,0,0,0.2619,0.2718,0.2724,0.2757,0.2822,0.2851,0.2903,0.2955,0.2989,0.3025,0.3068,0.3123,0.3129,0.3142,0.3154,0.3179,0.3241,0.3153,0.3152,0.3178,0.328,0.3296,0.3305,0.322,0.3222,0.3223,0.3276,0,0.2636,0.2714,0.2757,0.2818,0.2858,0.2896,0.2943,0.2995,0.3032,0.3083,0.3124,0.3172,0.3167,0.3186,0.3215,0.3231,0.3262,0.3229,0.3223,0.3223,0.3236,0.3315,0.3253,0.3298,0.3284,0.3285,0.3286,0,0.265,0.2705,0.2763,0.2844,0.2864,0.2897,0.2957,0.3013,0.3097,0.3129,0.3183,0.3213,0.3281,0.3256,0.3314,0.329,0.3298,0.3305,0.3306,0.3297,0.3253,0.3243,0.3312,0.3275,0.3297,0.3296,0.3295,0,0.2601,0.2699,0.2735,0.2766,0.2864,0.2887,0.2934,0.3016,0.3056,0.3165,0.3186,0.3272,0.3297,0.3331,0.3361,0.3336,0.3413,0.337,0.3394,0.3395,0.3331,0.3323,0.3367,0.3412,0.3412,0.3412,0.3412,0,0.2588,0.2623,0.2715,0.2743,0.2777,0.2868,0.291,0.2976,0.3062,0.3108,0.3206,0.3245,0.3313,0.3362,0.3387,0.343,0.3432,0.3429,0.342,0.3358,0.3353,0.3305,0.3283,0.3414,0.3414,0.3413,0.3413,0,0.2523,0.2589,0.264,0.2737,0.2754,0.2784,0.2863,0.2897,0.3003,0.3061,0.3093,0.3217,0.3313,0.3384,0.3452,0.3451,0.343,0.351,0.3444,0.3428,0.3408,0.3392,0.3278,0.3163,0.3545,0.3546,0.3547,0,0.2496,0.2516,0.26,0.2606,0.2641,0.2693,0.2712,0.2836,0.2874,0.3034,0.3046,0.3186,0.3284,0.3423,0.3489,0.3572,0.3458,0.352,0.3468,0.3431,0.3406,0.3249,0.3147,0.3413,0.3412,0.3412,0.3412,0,0.2433,0.246,0.2492,0.2515,0.253,0.2553,0.2607,0.2631,0.2781,0.2853,0.2983,0.3098,0.3292,0.3389,0.3517,0.3545,0.3392,0.3515,0.3484,0.3332,0.3153,0.3029,0.3357,0.3408,0.3409,0.3409,0.3409,0.3409,0.2362,0.2364,0.2402,0.2403,0.2415,0.242,0.2411,0.2492,0.2566,0.2677,0.2863,0.3009,0.3248,0.3458,0.347,0.3484,0.3392,0.3408,0.3401,0.325,0.3113,0.3453,0.3491,0.3491,0.3492,0.3493,0.3493,0,0.2282,0.2291,0.2287,0.2295,0.2257,0.2308,0.2327,0.2316,0.237,0.255,0.2687,0.2976,0.3146,0.3313,0.3478,0.3402,0.3194,0.3309,0.3074,0.2981,0.3312,0.3284,0.327,0.327,0.327,0.327,0.327,0.327,0.2245,0.2222,0.222,0.2137,0.2127,0.2059,0.2051,0.2071,0.217,0.2332,0.2501,0.2704,0.309,0.3415,0.347,0.3374,0.3099,0.2984,0.2908,0.3193,0.32,0.3206,0.3176,0.3138,0.3138,0.2444,0.2439,0.2436]},{"header":{"parameterUnit":"m.s-1","parameterCategory":2,"la1":30.2991,"la2":30.254,"lo1":-89.0895,"lo2":-89.0444,"dy":0.0017,"dx":0.0017,"nx":28,"ny":28,"refTime":"2024-04-26T03:00:00:Z","depth":"0","parameterNumber":3,"parameterNumberName":"V-component_of_CURRENTS"},"data":[0,0,0,0,0,0,0,0,0,0,0,0,0,0,0,0,0,0,0,0,0,0,0,0,0,0,0,0,0,0,0,0,0,0,0,0,0,0,0,0,0,0,0,0,0,0,0,0,0,0,0,0,0,0,0,0,0,0,-0.0052,-0.0053,0,-0.0154,-0.0155,-0.0157,-0.0216,-0.0216,-0.0216,-0.0216,-0.036,-0.0364,-0.0368,0,0,0,0,0,0,0,0,0,0,0,0,0,0.0016,0.0015,-0.0052,-0.0053,-0.0054,-0.0154,-0.0155,-0.0157,-0.0216,-0.0216,-0.0216,-0.0216,-0.0359,-0.0364,-0.0368,0,0,0,0,0,0,0,0,0,0,0,0,0,-0.0045,0.0015,-0.0052,-0.0093,-0.0098,-0.0153,-0.0156,-0.0158,-0.0216,-0.0216,-0.0216,-0.0216,-0.0357,-0.0363,-0.0369,-0.0406,0,0,-0.0387,-0.0389,0,0,0,0,0,0,0,0,-0.0042,-0.0048,-0.0086,-0.009,-0.0096,-0.017,-0.0184,-0.0242,-0.0216,-0.0174,-0.0216,-0.0216,-0.0298,-0.0309,-0.0332,-0.0413,-0.0419,-0.0387,-0.0391,-0.0393,-0.0395,0,0,0,0,0,0,0,-0.0037,-0.0044,-0.0096,-0.0087,-0.0093,-0.0132,-0.0141,-0.0196,-0.0239,-0.0178,-0.0182,-0.0188,-0.0302,-0.0326,-0.0336,-0.0421,-0.0387,-0.0392,-0.0396,-0.0398,-0.0509,-0.0509,0,0,0,0,0,0,-0.0015,-0.004,-0.0092,-0.0098,-0.0064,-0.0133,-0.0143,-0.0148,-0.0237,-0.025,-0.0188,-0.0191,-0.0316,-0.0329,-0.0341,-0.0367,-0.0393,-0.0399,-0.0402,-0.051,-0.0509,-0.0509,0,0,0,0,0,0,-0.0013,-0.0018,-0.0088,-0.0069,-0.008,-0.0133,-0.014,-0.015,-0.0169,-0.0244,-0.0258,-0.0195,-0.0317,-0.0333,-0.0372,-0.0374,-0.0401,-0.0406,-0.0511,-0.051,-0.0509,-0.0433,0,0,0,0,0,0,-0.001,-0.0017,-0.0014,-0.0067,-0.008,-0.0106,-0.014,-0.0152,-0.0172,-0.0176,-0.0254,-0.0268,-0.0318,-0.0363,-0.0378,-0.0382,-0.0411,-0.0511,-0.051,-0.0509,-0.0436,-0.043,-0.0424,0,0,0,0,0,-0.0008,0.0,-0.0013,-0.002,-0.0074,-0.0105,-0.0115,-0.0156,-0.0172,-0.0174,-0.0221,-0.0265,-0.0367,-0.0367,-0.0385,-0.0391,-0.0512,-0.051,-0.0509,-0.0439,-0.0431,-0.0424,0,0,0,0,0,0,0.0028,-0.0007,-0.0022,-0.0026,-0.0056,-0.0113,-0.012,-0.0148,-0.0188,-0.0192,-0.0262,-0.0279,-0.0314,-0.0358,-0.0356,-0.0418,-0.0446,-0.0449,-0.0386,-0.038,-0.0374,-0.0348,-0.0416,0,0,0,0,0,0.0039,0.0037,-0.0003,-0.0006,-0.0016,-0.0066,-0.0084,-0.0109,-0.0152,-0.017,-0.0223,-0.0277,-0.0325,-0.0354,-0.0402,-0.0439,-0.0468,-0.0453,-0.0446,-0.0441,-0.0431,-0.0468,-0.0464,-0.0505,-0.0505,-0.0505,0,0,0.0051,0.0033,0.0031,0.0002,-0.0026,-0.0034,-0.0077,-0.0094,-0.0104,-0.018,-0.0207,-0.0258,-0.0328,-0.0365,-0.0385,-0.0402,-0.0443,-0.044,-0.0435,-0.0427,-0.0467,-0.0463,-0.0459,-0.0504,-0.0504,-0.0504,0,0,0.008,0.0061,0.0071,0.0052,0.0023,-0.0006,-0.0004,-0.0053,-0.0074,-0.0105,-0.016,-0.0203,-0.0279,-0.0328,-0.0363,-0.0353,-0.0407,-0.0372,-0.0329,-0.0365,-0.0362,-0.0359,-0.038,-0.0381,-0.0372,-0.0372,-0.0372,0,0.0097,0.0101,0.0069,0.0072,0.0064,0.0014,0.0023,-0.0009,-0.0064,-0.0077,-0.0098,-0.0199,-0.0261,-0.0308,-0.0306,-0.0341,-0.0362,-0.0351,-0.0356,-0.0354,-0.0353,-0.0376,-0.0377,-0.0368,-0.0369,-0.0369,-0.037,0,0.0128,0.0132,0.0137,0.0127,0.0114,0.0113,0.0074,0.006,0.0029,-0.0008,-0.005,-0.0129,-0.0185,-0.0218,-0.0264,-0.0291,-0.0308,-0.034,-0.0371,-0.0345,-0.037,-0.0373,-0.0363,-0.0364,-0.0365,-0.0366,0,0,0.017,0.0163,0.0165,0.0175,0.0145,0.0141,0.0134,0.0112,0.0116,0.0053,0.0051,-0.0047,-0.0087,-0.0128,-0.0194,-0.0234,-0.0252,-0.0278,-0.0282,-0.0292,-0.0317,-0.0327,-0.0331,-0.0285,-0.0285,-0.0285,-0.0334,0,0.0207,0.0233,0.0215,0.024,0.0252,0.0215,0.0216,0.0188,0.0158,0.0143,0.006,0.0028,-0.0054,-0.0074,-0.0128,-0.0219,-0.0256,-0.0235,-0.0347,-0.0349,-0.0357,-0.0334,-0.0313,-0.0354,-0.0337,-0.0337,-0.0337,0,0.0247,0.026,0.0296,0.0308,0.0311,0.032,0.0324,0.0317,0.0278,0.0256,0.0206,0.0143,0.007,0.0007,-0.0132,-0.0112,-0.0203,-0.0275,-0.028,-0.0316,-0.0364,-0.0382,-0.036,-0.0536,-0.0342,-0.0342,-0.0341,0,0.0303,0.0318,0.0356,0.0357,0.036,0.0378,0.0379,0.0356,0.0369,0.0335,0.0344,0.0239,0.0205,0.0075,-0.0084,-0.0104,-0.0222,-0.0274,-0.0367,-0.0369,-0.0387,-0.0389,-0.0543,-0.036,-0.036,-0.036,-0.036,0,0.0352,0.0381,0.039,0.0412,0.0465,0.0442,0.0493,0.048,0.048,0.0517,0.0412,0.0423,0.0221,0.0124,-0.0034,-0.0198,-0.0188,-0.0348,-0.0381,-0.0358,-0.0358,-0.0541,-0.0666,-0.0362,-0.0361,-0.0361,-0.0361,0,0.0411,0.0413,0.0463,0.0484,0.0499,0.0539,0.058,0.061,0.0602,0.0653,0.0653,0.0564,0.0445,0.0242,0.004,-0.0119,-0.0396,-0.0345,-0.0297,-0.0323,-0.0582,-0.0702,-0.0913,-0.1014,-0.0455,-0.0456,-0.0456,0,0.0445,0.0478,0.0528,0.0562,0.058,0.0632,0.067,0.0676,0.0718,0.0751,0.0786,0.0696,0.0668,0.0366,0.0063,-0.0203,-0.0403,-0.0373,-0.0421,-0.0584,-0.0743,-0.0836,-0.0913,-0.0414,-0.0414,-0.0414,-0.0414,0,0.0514,0.0534,0.0572,0.0645,0.0698,0.0758,0.0818,0.0877,0.0904,0.0965,0.1035,0.1029,0.0749,0.0497,0.0112,-0.0097,-0.0518,-0.0382,-0.057,-0.0736,-0.0829,-0.0944,-0.0389,-0.0414,-0.0414,-0.0414,-0.0414,-0.0414,0.0571,0.0613,0.0665,0.0731,0.0792,0.0881,0.0957,0.1031,0.1143,0.1255,0.1243,0.1298,0.0892,0.0377,0.0063,-0.0503,-0.054,-0.066,-0.0793,-0.0871,-0.0975,-0.041,-0.0464,-0.0464,-0.0464,-0.0465,-0.0465,0,0.0648,0.0685,0.0742,0.083,0.0904,0.0926,0.1051,0.1141,0.1298,0.142,0.1511,0.1389,0.0895,0.036,-0.0402,-0.081,-0.0995,-0.105,-0.1186,-0.1248,-0.0749,-0.0751,-0.0845,-0.0845,-0.0845,-0.0845,-0.0845,-0.0844,0.0693,0.0762,0.0779,0.0907,0.0972,0.11,0.1185,0.133,0.1455,0.1623,0.1697,0.1713,0.1324,-0.0046,-0.1001,-0.1243,-0.1546,-0.1616,-0.179,-0.1453,-0.1426,-0.1401,-0.143,-0.1665,-0.1666,-0.2214,-0.222,-0.2224]}],[{"header":{"parameterUnit":"m.s-1","parameterCategory":2,"la1":30.2991,"la2":30.254,"lo1":-89.0895,"lo2":-89.0444,"dy":0.0017,"dx":0.0017,"nx":28,"ny":28,"refTime":"2024-04-26T03:00:00:Z","depth":"2","parameterNumber":2,"parameterNumberName":"U-component_of_CURRENTS"},"data":[0,0,0,0,0,0,0,0,0,0,0,0,0,0,0,0,0,0,0,0,0,0,0,0,0,0,0,0,0,0,0,0,0,0,0,0,0,0,0,0,0,0,0,0,0,0,0,0,0,0,0,0,0,0,0,0,0,0,0.2633,0.2633,0,0.2708,0.271,0.2711,0.2717,0.2716,0.2715,0.2713,0.2696,0.2697,0.2698,0,0,0,0,0,0,0,0,0,0,0,0,0,0.2528,0.253,0.2632,0.2633,0.2633,0.2708,0.271,0.2711,0.2718,0.2716,0.2714,0.2713,0.2696,0.2697,0.2698,0,0,0,0,0,0,0,0,0,0,0,0,0,0.259,0.2531,0.2632,0.2642,0.2643,0.2708,0.271,0.2712,0.2718,0.2716,0.2714,0.2712,0.2696,0.2697,0.2698,0.2744,0,0,0.2701,0.2702,0,0,0,0,0,0,0,0,0.2587,0.2595,0.264,0.2641,0.2643,0.2697,0.2666,0.2716,0.2718,0.2695,0.2713,0.2711,0.2686,0.2688,0.2715,0.2743,0.2742,0.2701,0.2702,0.2703,0.2703,0,0,0,0,0,0,0,0.2582,0.2592,0.2668,0.264,0.2642,0.2654,0.2661,0.2677,0.2703,0.2697,0.2696,0.2697,0.2686,0.2714,0.2714,0.2742,0.2701,0.2702,0.2703,0.2704,0.2794,0.2796,0,0,0,0,0,0,0.2564,0.2588,0.2665,0.2669,0.2604,0.2657,0.2665,0.2686,0.2704,0.2705,0.2699,0.2697,0.2713,0.2713,0.2713,0.2768,0.2703,0.2704,0.2704,0.2792,0.2794,0.2796,0,0,0,0,0,0,0.2562,0.2571,0.2662,0.2625,0.2636,0.266,0.2684,0.2688,0.2718,0.2706,0.2705,0.2723,0.2712,0.2712,0.272,0.2767,0.2704,0.2705,0.279,0.2793,0.2795,0.2877,0,0,0,0,0,0,0.2559,0.257,0.2589,0.2624,0.2638,0.2691,0.2685,0.2691,0.2719,0.2718,0.2727,0.2723,0.271,0.2718,0.2721,0.2767,0.2706,0.2788,0.2791,0.2794,0.2872,0.2882,0.2891,0,0,0,0,0,0.2555,0.2582,0.259,0.2599,0.266,0.2691,0.27,0.2713,0.2722,0.2735,0.2738,0.2723,0.2741,0.272,0.2723,0.2771,0.2786,0.279,0.2794,0.2868,0.288,0.2891,0,0,0,0,0,0,0.2553,0.2586,0.2595,0.2634,0.2655,0.269,0.2714,0.2726,0.2748,0.2745,0.274,0.2737,0.2764,0.2756,0.2733,0.2807,0.2765,0.277,0.282,0.2832,0.2841,0.2842,0.2707,0,0,0,0,0,0.2561,0.2585,0.2615,0.2644,0.2663,0.2696,0.2716,0.2719,0.2738,0.2748,0.2757,0.2768,0.2788,0.2795,0.2803,0.2844,0.2831,0.2878,0.2887,0.2895,0.2898,0.2908,0.2919,0.2809,0.2809,0.2809,0,0,0.2562,0.2587,0.2599,0.2644,0.2674,0.2707,0.2705,0.2733,0.2759,0.2741,0.2787,0.2796,0.2803,0.2844,0.2857,0.284,0.2925,0.29,0.2907,0.2905,0.2913,0.2924,0.2933,0.2812,0.2811,0.2811,0,0,0.2577,0.2612,0.2637,0.2675,0.2709,0.2717,0.2727,0.2767,0.2786,0.2821,0.2824,0.2854,0.2885,0.2905,0.2919,0.2986,0.2969,0.3,0.3055,0.3066,0.3075,0.3082,0.3099,0.3107,0.301,0.3011,0.3011,0,0.2576,0.2621,0.2646,0.2699,0.2723,0.2726,0.2757,0.279,0.2822,0.285,0.2832,0.2911,0.2916,0.2981,0.3011,0.3008,0.3011,0.3013,0.3078,0.3085,0.3091,0.3105,0.3113,0.3015,0.3015,0.3014,0.3014,0,0.2624,0.2664,0.2691,0.2745,0.2772,0.28,0.2833,0.2856,0.287,0.2909,0.297,0.2982,0.3028,0.3051,0.3055,0.3125,0.3112,0.3083,0.3047,0.3107,0.3119,0.3126,0.3021,0.302,0.3018,0.3017,0,0,0.2591,0.2696,0.2703,0.2738,0.2798,0.2817,0.2862,0.2902,0.2948,0.2986,0.3045,0.3108,0.3131,0.3148,0.3164,0.3187,0.3248,0.3168,0.3167,0.3182,0.3283,0.3291,0.3298,0.3231,0.3233,0.3234,0.328,0,0.2608,0.2692,0.2734,0.2792,0.2834,0.2865,0.2909,0.2955,0.2993,0.3054,0.3094,0.3156,0.3166,0.3194,0.3225,0.3233,0.3267,0.3239,0.3225,0.3225,0.3222,0.3307,0.3045,0.3066,0.3286,0.3287,0.3288,0,0.263,0.2683,0.2744,0.282,0.2842,0.2875,0.2931,0.2975,0.3066,0.3108,0.3179,0.3214,0.3283,0.3258,0.3317,0.33,0.331,0.3309,0.3309,0.3289,0.3246,0.3039,0.3069,0.3299,0.3298,0.3297,0.3296,0,0.2579,0.2678,0.2711,0.2753,0.2844,0.2872,0.2908,0.2999,0.3032,0.3148,0.3178,0.3273,0.3294,0.3327,0.3361,0.334,0.3402,0.3359,0.3377,0.3377,0.3138,0.3115,0.3398,0.3398,0.3398,0.3398,0.3398,0,0.2573,0.2606,0.27,0.2736,0.277,0.2859,0.2902,0.2967,0.305,0.31,0.3206,0.3244,0.3309,0.3356,0.3381,0.3419,0.3422,0.3409,0.3398,0.3163,0.3144,0.332,0.3311,0.3399,0.3399,0.3399,0.3398,0,0.2512,0.2577,0.2628,0.2729,0.2749,0.2783,0.2859,0.2894,0.3002,0.3054,0.3085,0.3212,0.3305,0.3374,0.3432,0.3432,0.347,0.348,0.3218,0.3178,0.3429,0.3424,0.3497,0.3498,0.3498,0.3499,0.3499,0,0.2487,0.2511,0.2597,0.2604,0.2646,0.2701,0.272,0.2841,0.2879,0.3029,0.3037,0.3173,0.3263,0.3385,0.3419,0.3485,0.3515,0.3264,0.3185,0.3463,0.3444,0.3437,0.343,0.2893,0.2888,0.2885,0.2882,0,0.243,0.2459,0.249,0.2521,0.2543,0.2563,0.2621,0.2644,0.2782,0.2855,0.2974,0.3071,0.3221,0.3199,0.3307,0.3296,0.3239,0.3196,0.3527,0.2936,0.2904,0.2883,0.2893,0.2849,0.2852,0.2855,0.2856,0.2858,0.236,0.2367,0.2407,0.2415,0.2429,0.2436,0.2429,0.2507,0.2573,0.2655,0.2817,0.2879,0.2958,0.3017,0.2968,0.2938,0.3161,0.3003,0.3008,0.3018,0.2968,0.2942,0.2884,0.2888,0.289,0.2893,0.2895,0,0.2285,0.2297,0.2297,0.2309,0.2273,0.2329,0.2347,0.2331,0.2381,0.2493,0.2583,0.2453,0.2484,0.2563,0.2495,0.2549,0.2451,0.2427,0.2259,0.2297,0.233,0.2237,0.1963,0.1959,0.1956,0.1953,0,0,0.2248,0.2226,0.2228,0.2149,0.2146,0.2091,0.2085,0.2104,0.216,0.2155,0.2167,0.2342,0.2505,0.218,0.2179,0.206,0.2141,0.1976,0.2736,0.2578,0.2605,0.2695,0.2602,0,0,0,0,0]},{"header":{"parameterUnit":"m.s-1","parameterCategory":2,"la1":30.2991,"la2":30.254,"lo1":-89.0895,"lo2":-89.0444,"dy":0.0017,"dx":0.0017,"nx":28,"ny":28,"refTime":"2024-04-26T03:00:00:Z","depth":"2","parameterNumber":3,"parameterNumberName":"V-component_of_CURRENTS"},"data":[0,0,0,0,0,0,0,0,0,0,0,0,0,0,0,0,0,0,0,0,0,0,0,0,0,0,0,0,0,0,0,0,0,0,0,0,0,0,0,0,0,0,0,0,0,0,0,0,0,0,0,0,0,0,0,0,0,0,-0.0095,-0.0095,0,-0.0189,-0.019,-0.0192,-0.0244,-0.0244,-0.0244,-0.0244,-0.0376,-0.0379,-0.0383,0,0,0,0,0,0,0,0,0,0,0,0,0,-0.0048,-0.0048,-0.0094,-0.0095,-0.0096,-0.0189,-0.0191,-0.0192,-0.0245,-0.0244,-0.0244,-0.0244,-0.0374,-0.0379,-0.0383,0,0,0,0,0,0,0,0,0,0,0,0,0,-0.01,-0.0048,-0.0094,-0.0132,-0.0136,-0.0189,-0.0191,-0.0192,-0.0245,-0.0244,-0.0244,-0.0244,-0.0373,-0.0378,-0.0383,-0.0418,0,0,-0.04,-0.0402,0,0,0,0,0,0,0,0,-0.0097,-0.0102,-0.0125,-0.0129,-0.0134,-0.0203,-0.0222,-0.0269,-0.0245,-0.0206,-0.0244,-0.0244,-0.032,-0.0329,-0.035,-0.0424,-0.043,-0.04,-0.0403,-0.0406,-0.0407,0,0,0,0,0,0,0,-0.0093,-0.0098,-0.0134,-0.0126,-0.0132,-0.0174,-0.0181,-0.0232,-0.0265,-0.0209,-0.0213,-0.022,-0.0323,-0.0345,-0.0354,-0.0432,-0.04,-0.0405,-0.0408,-0.041,-0.0518,-0.0517,0,0,0,0,0,0,-0.0072,-0.0094,-0.0131,-0.0137,-0.0112,-0.0175,-0.0182,-0.0183,-0.0264,-0.0275,-0.0219,-0.0222,-0.0336,-0.0348,-0.0359,-0.0382,-0.0406,-0.0411,-0.0414,-0.0518,-0.0518,-0.0517,0,0,0,0,0,0,-0.007,-0.0074,-0.0128,-0.0117,-0.0126,-0.0175,-0.0175,-0.0185,-0.0201,-0.027,-0.0283,-0.0224,-0.0336,-0.0351,-0.0387,-0.0388,-0.0413,-0.0418,-0.0518,-0.0518,-0.0518,-0.0443,0,0,0,0,0,0,-0.0069,-0.0073,-0.0066,-0.0115,-0.0126,-0.0145,-0.0176,-0.0187,-0.0204,-0.0208,-0.0279,-0.0291,-0.0337,-0.0379,-0.0393,-0.0396,-0.0422,-0.0519,-0.0518,-0.0518,-0.0446,-0.044,-0.0435,0,0,0,0,0,-0.0066,-0.0054,-0.0065,-0.0069,-0.0114,-0.0144,-0.0154,-0.0191,-0.0204,-0.0206,-0.0249,-0.0289,-0.0385,-0.0383,-0.0399,-0.0404,-0.0519,-0.0518,-0.0518,-0.0448,-0.0441,-0.0435,0,0,0,0,0,0,-0.0027,-0.0059,-0.0072,-0.0069,-0.0098,-0.0152,-0.0156,-0.0183,-0.022,-0.0223,-0.0286,-0.0302,-0.0334,-0.0377,-0.0373,-0.0432,-0.0459,-0.0461,-0.04,-0.0394,-0.0389,-0.0361,-0.0427,0,0,0,0,0,-0.0015,-0.0016,-0.0053,-0.005,-0.0059,-0.0106,-0.0122,-0.0148,-0.0187,-0.0203,-0.025,-0.0301,-0.0346,-0.0373,-0.0418,-0.0453,-0.0481,-0.0466,-0.046,-0.0455,-0.0443,-0.048,-0.0476,-0.0515,-0.0515,-0.0515,0,0,-0.0,-0.0017,-0.0018,-0.0043,-0.0068,-0.0074,-0.0116,-0.0133,-0.0142,-0.0213,-0.0234,-0.0283,-0.0349,-0.0383,-0.0403,-0.0419,-0.0458,-0.0454,-0.045,-0.044,-0.0478,-0.0475,-0.0471,-0.0514,-0.0514,-0.0514,0,0,0.0028,0.0017,0.0026,0.0009,-0.002,-0.0047,-0.0046,-0.0091,-0.0113,-0.0141,-0.0192,-0.0231,-0.0302,-0.0347,-0.0381,-0.0372,-0.0424,-0.0393,-0.0351,-0.0386,-0.0383,-0.038,-0.0404,-0.0404,-0.0395,-0.0394,-0.0394,0,0.0047,0.0055,0.0023,0.0027,0.0022,-0.0027,-0.0017,-0.0049,-0.0101,-0.0114,-0.0133,-0.0225,-0.0283,-0.0327,-0.0327,-0.036,-0.0384,-0.037,-0.0378,-0.0376,-0.0375,-0.04,-0.0401,-0.0391,-0.0391,-0.0392,-0.0392,0,0.008,0.0086,0.0093,0.0085,0.0074,0.0075,0.0036,0.0022,-0.0006,-0.0044,-0.0083,-0.0156,-0.0207,-0.0239,-0.0285,-0.031,-0.033,-0.0362,-0.039,-0.0366,-0.0394,-0.0397,-0.0385,-0.0387,-0.0388,-0.0389,0,0,0.0125,0.0118,0.012,0.0131,0.0108,0.0105,0.0098,0.0076,0.0079,0.0019,0.0019,-0.0073,-0.0111,-0.015,-0.0214,-0.0253,-0.0273,-0.03,-0.0304,-0.0315,-0.0341,-0.0353,-0.0357,-0.0307,-0.0307,-0.0307,-0.0362,0,0.0162,0.0189,0.0173,0.0201,0.0216,0.0181,0.0184,0.0155,0.0124,0.0111,0.0029,0.0001,-0.008,-0.0096,-0.015,-0.024,-0.0278,-0.0255,-0.037,-0.0373,-0.038,-0.036,-0.034,-0.0386,-0.0365,-0.0365,-0.0365,0,0.0206,0.0217,0.0257,0.0269,0.0274,0.0286,0.0293,0.0287,0.0246,0.0223,0.0175,0.0114,0.0044,-0.0016,-0.0154,-0.0136,-0.0227,-0.0299,-0.0303,-0.034,-0.0389,-0.041,-0.0393,-0.0371,-0.037,-0.037,-0.0369,0,0.0261,0.0279,0.0318,0.0322,0.0327,0.0345,0.0348,0.0324,0.0335,0.0302,0.031,0.0208,0.0176,0.0048,-0.0111,-0.0131,-0.025,-0.03,-0.0394,-0.0396,-0.0414,-0.0417,-0.0384,-0.0384,-0.0384,-0.0384,-0.0384,0,0.0314,0.0343,0.0352,0.0374,0.0429,0.0409,0.046,0.0447,0.0446,0.0479,0.0377,0.0386,0.0191,0.0093,-0.0063,-0.0228,-0.0218,-0.0375,-0.0409,-0.0387,-0.0387,-0.0405,-0.0406,-0.0386,-0.0386,-0.0385,-0.0385,0,0.0372,0.0375,0.0423,0.0445,0.0461,0.0502,0.0544,0.0573,0.0565,0.0612,0.0612,0.052,0.0397,0.0201,0.0001,-0.0154,-0.0316,-0.0378,-0.0332,-0.036,-0.0452,-0.0449,-0.0489,-0.049,-0.0491,-0.0491,-0.0492,0,0.0405,0.0438,0.0487,0.0522,0.0539,0.0593,0.0632,0.0638,0.0677,0.0702,0.0733,0.064,0.0593,0.0295,0.0007,-0.0254,-0.0297,-0.0413,-0.0456,-0.0432,-0.0462,-0.0458,-0.0454,-0.0452,-0.0452,-0.0452,-0.0452,0,0.0469,0.0488,0.0525,0.0601,0.0654,0.0716,0.0775,0.0829,0.0853,0.0903,0.0953,0.0928,0.0648,0.0383,0.0014,-0.0171,-0.0373,-0.0423,-0.0408,-0.0425,-0.0401,-0.0429,-0.0426,-0.0453,-0.0453,-0.0453,-0.0453,-0.0453,0.0519,0.0561,0.0612,0.0682,0.0745,0.0831,0.0902,0.0966,0.1064,0.1123,0.1091,0.1042,0.0749,0.0269,-0.0033,-0.0368,-0.0364,-0.0493,-0.0492,-0.049,-0.0472,-0.0451,-0.0508,-0.0509,-0.0509,-0.0509,-0.0509,0,0.0579,0.062,0.0685,0.0773,0.0843,0.0877,0.099,0.1045,0.1173,0.1205,0.1225,0.0922,0.065,0.0321,-0.0167,-0.0452,-0.0483,-0.0545,-0.0519,-0.0516,-0.0514,-0.0497,-0.054,-0.0541,-0.0541,-0.0542,0,0,0.0616,0.068,0.0707,0.0832,0.0905,0.1025,0.11,0.1163,0.1204,0.1214,0.1178,0.1092,0.0736,0.0373,-0.0007,-0.0268,-0.0333,-0.033,-0.0276,-0.0198,-0.0192,-0.0457,-0.0424,0,0,0,0,0]}],[{"header":{"parameterUnit":"m.s-1","parameterCategory":2,"la1":30.2991,"la2":30.254,"lo1":-89.0895,"lo2":-89.0444,"dy":0.0017,"dx":0.0017,"nx":28,"ny":28,"refTime":"2024-04-26T03:00:00:Z","depth":"4","parameterNumber":2,"parameterNumberName":"U-component_of_CURRENTS"},"data":[0,0,0,0,0,0,0,0,0,0,0,0,0,0,0,0,0,0,0,0,0,0,0,0,0,0,0,0,0,0,0,0,0,0,0,0,0,0,0,0,0,0,0,0,0,0,0,0,0,0,0,0,0,0,0,0,0,0,0.1576,0.1577,0,0.1622,0.1622,0.1622,0.1679,0.1681,0.1682,0.1683,0.1767,0.1768,0.1769,0,0,0,0,0,0,0,0,0,0,0,0,0,0.1501,0.1502,0.1576,0.1577,0.1578,0.1622,0.1622,0.1622,0.1679,0.1681,0.1682,0.1684,0.1767,0.1768,0.1769,0,0,0,0,0,0,0,0,0,0,0,0,0,0.1534,0.1502,0.1576,0.1615,0.162,0.1621,0.1622,0.1622,0.1679,0.1681,0.1683,0.1685,0.1767,0.1768,0.177,0.1737,0,0,0.1774,0.1775,0,0,0,0,0,0,0,0,0.1532,0.1536,0.1608,0.1613,0.1618,0.1651,0.1627,0.1664,0.1678,0.1651,0.1683,0.1686,0.1734,0.1738,0.1734,0.1741,0.1744,0.1774,0.1775,0.1776,0.1776,0,0,0,0,0,0,0,0.153,0.1534,0.1589,0.1609,0.1615,0.1619,0.1625,0.1633,0.1677,0.1653,0.1659,0.1671,0.1736,0.1733,0.1737,0.1746,0.1774,0.1775,0.1776,0.1777,0.1891,0.1893,0,0,0,0,0,0,0.1534,0.1532,0.1587,0.1591,0.1585,0.1619,0.1626,0.1634,0.1676,0.1686,0.167,0.1674,0.1729,0.1735,0.174,0.1835,0.1775,0.1777,0.1778,0.1889,0.1892,0.1894,0,0,0,0,0,0,0.1532,0.1538,0.1586,0.1567,0.1574,0.1619,0.1627,0.1634,0.1675,0.1689,0.1699,0.1709,0.1731,0.1738,0.18,0.1835,0.1777,0.1779,0.1887,0.189,0.1893,0.1942,0,0,0,0,0,0,0.153,0.1537,0.1558,0.1567,0.1575,0.1617,0.1626,0.1634,0.1679,0.1687,0.1725,0.1732,0.1733,0.1799,0.1802,0.1835,0.178,0.1884,0.1888,0.1892,0.1937,0.1946,0.1954,0,0,0,0,0,0.1527,0.1542,0.1559,0.1567,0.1598,0.1619,0.1623,0.1658,0.168,0.1701,0.1742,0.1734,0.1827,0.1801,0.1805,0.184,0.1882,0.1887,0.1892,0.1934,0.1945,0.1954,0,0,0,0,0,0,0.1521,0.155,0.1569,0.1594,0.1621,0.1631,0.1657,0.1678,0.1722,0.1742,0.1756,0.1766,0.1835,0.1833,0.1804,0.1888,0.1855,0.186,0.1886,0.1896,0.1904,0.1896,0.1781,0,0,0,0,0,0.1528,0.1552,0.1577,0.1603,0.1618,0.1644,0.1663,0.1687,0.172,0.1742,0.1774,0.1812,0.1847,0.1871,0.1898,0.1935,0.1948,0.1964,0.1972,0.1979,0.1978,0.204,0.2053,0.191,0.191,0.191,0,0,0.1534,0.1555,0.157,0.1605,0.1627,0.1651,0.1661,0.17,0.1734,0.1743,0.1813,0.1844,0.1867,0.1919,0.1949,0.1928,0.203,0.1985,0.1991,0.1986,0.2046,0.206,0.2072,0.1914,0.1913,0.1912,0,0,0.1539,0.1576,0.1592,0.1618,0.1663,0.168,0.1702,0.1739,0.1776,0.1834,0.1859,0.1913,0.1964,0.1985,0.2,0.2068,0.2075,0.2089,0.2119,0.2179,0.2191,0.2202,0.2243,0.2257,0.2089,0.2089,0.2089,0,0.1548,0.1573,0.1602,0.1624,0.1654,0.1699,0.1725,0.176,0.1819,0.1854,0.1873,0.197,0.1989,0.2047,0.2077,0.2084,0.2121,0.2075,0.2189,0.2199,0.2209,0.2249,0.2264,0.2092,0.2092,0.2091,0.2091,0,0.1556,0.159,0.1605,0.1651,0.1684,0.1719,0.1768,0.1822,0.1878,0.191,0.2001,0.2036,0.2093,0.2111,0.2115,0.2197,0.2203,0.2194,0.2158,0.2226,0.2265,0.2279,0.2096,0.2095,0.2094,0.2093,0,0,0.1531,0.1599,0.1606,0.1641,0.1707,0.1735,0.1802,0.1868,0.193,0.1993,0.207,0.2127,0.216,0.218,0.2201,0.2247,0.2347,0.2258,0.226,0.2289,0.2488,0.2331,0.2332,0.2373,0.2376,0.2378,0.2489,0,0.1534,0.1579,0.1615,0.1676,0.1707,0.1774,0.1836,0.1907,0.198,0.2067,0.2115,0.22,0.2183,0.2237,0.2278,0.2344,0.2387,0.2317,0.2426,0.2428,0.2272,0.2343,0.2386,0.2499,0.2502,0.2505,0.2506,0,0.1523,0.1562,0.1615,0.1706,0.1728,0.1781,0.19,0.1963,0.2078,0.2141,0.2218,0.2267,0.2355,0.2335,0.2454,0.2423,0.2458,0.249,0.2495,0.2337,0.2297,0.2417,0.2532,0.253,0.2528,0.2526,0.2524,0,0.1485,0.1563,0.1614,0.1643,0.1746,0.1805,0.188,0.1993,0.2061,0.2206,0.2277,0.2369,0.245,0.251,0.2563,0.254,0.2688,0.2658,0.2541,0.253,0.2615,0.2602,0.2733,0.2733,0.2733,0.2733,0.2732,0,0.146,0.1505,0.1613,0.1638,0.1726,0.1809,0.1914,0.2006,0.2135,0.221,0.2322,0.2388,0.2506,0.2587,0.2614,0.2618,0.273,0.2554,0.2551,0.2634,0.2623,0.2625,0.2611,0.2737,0.2736,0.2735,0.2734,0,0.1402,0.1469,0.1537,0.1659,0.1706,0.1777,0.1926,0.1993,0.2141,0.2248,0.2304,0.2449,0.2555,0.2637,0.275,0.2673,0.2702,0.2672,0.2766,0.2766,0.2492,0.248,0.2552,0.2547,0.2543,0.254,0.2537,0,0.1373,0.1401,0.1536,0.1584,0.1647,0.1761,0.183,0.1983,0.2045,0.2249,0.2282,0.2447,0.252,0.255,0.2649,0.2695,0.2657,0.265,0.2545,0.2485,0.2476,0.247,0.2463,0.2531,0.253,0.2529,0.2528,0,0.1314,0.1377,0.1431,0.1531,0.1614,0.169,0.1802,0.1831,0.1997,0.2142,0.2206,0.2267,0.2379,0.2447,0.2509,0.2527,0.2643,0.2609,0.2616,0.2517,0.2461,0.2455,0.2452,0.2515,0.2517,0.2518,0.2519,0,0.1275,0.1301,0.1382,0.146,0.1554,0.1594,0.1664,0.1731,0.181,0.2013,0.2026,0.2199,0.234,0.2362,0.2415,0.2431,0.2386,0.2294,0.2316,0.2332,0.2208,0.2101,0.205,0,0,0,0,0,0.1224,0.124,0.1305,0.1375,0.1461,0.1518,0.1629,0.1695,0.1838,0.1828,0.192,0.2006,0.2088,0.2179,0.2154,0.2337,0.2408,0.2298,0.2315,0.2441,0.2456,0.233,0,0,0,0,0,0,0.1187,0.1239,0.1266,0.1286,0.1317,0.1396,0.1461,0.1561,0.1556,0.1709,0.1764,0.1884,0.1998,0.2086,0.2116,0.2145,0.2114,0.2404,0.2399,0.2432,0.2446,0.2458,0.2334,0,0,0,0,0]},{"header":{"parameterUnit":"m.s-1","parameterCategory":2,"la1":30.2991,"la2":30.254,"lo1":-89.0895,"lo2":-89.0444,"dy":0.0017,"dx":0.0017,"nx":28,"ny":28,"refTime":"2024-04-26T03:00:00:Z","depth":"4","parameterNumber":3,"parameterNumberName":"V-component_of_CURRENTS"},"data":[0,0,0,0,0,0,0,0,0,0,0,0,0,0,0,0,0,0,0,0,0,0,0,0,0,0,0,0,0,0,0,0,0,0,0,0,0,0,0,0,0,0,0,0,0,0,0,0,0,0,0,0,0,0,0,0,0,0,-0.0043,-0.0043,0,-0.0081,-0.0081,-0.0081,-0.0115,-0.0116,-0.0116,-0.0116,-0.0197,-0.0199,-0.0201,0,0,0,0,0,0,0,0,0,0,0,0,0,-0.0029,-0.0029,-0.0042,-0.0043,-0.0044,-0.0081,-0.0081,-0.0082,-0.0115,-0.0116,-0.0116,-0.0117,-0.0197,-0.0199,-0.0201,0,0,0,0,0,0,0,0,0,0,0,0,0,-0.0047,-0.0029,-0.0042,-0.0065,-0.0067,-0.0081,-0.0081,-0.0082,-0.0115,-0.0116,-0.0116,-0.0117,-0.0196,-0.0199,-0.0201,-0.0205,0,0,-0.0209,-0.021,0,0,0,0,0,0,0,0,-0.0046,-0.0048,-0.0061,-0.0064,-0.0066,-0.0094,-0.0106,-0.0125,-0.0115,-0.0096,-0.0116,-0.0117,-0.0167,-0.0172,-0.0176,-0.0208,-0.0212,-0.021,-0.0211,-0.0212,-0.0213,0,0,0,0,0,0,0,-0.0045,-0.0047,-0.0057,-0.0062,-0.0065,-0.0084,-0.0087,-0.011,-0.0128,-0.0098,-0.0101,-0.0105,-0.0168,-0.0174,-0.0179,-0.0213,-0.0209,-0.0212,-0.0213,-0.0214,-0.0273,-0.0273,0,0,0,0,0,0,-0.0039,-0.0045,-0.0056,-0.0058,-0.0058,-0.0084,-0.0087,-0.0084,-0.0127,-0.0134,-0.0105,-0.0107,-0.0169,-0.0175,-0.0182,-0.0192,-0.0212,-0.0215,-0.0216,-0.0273,-0.0273,-0.0273,0,0,0,0,0,0,-0.0038,-0.0039,-0.0054,-0.0054,-0.0057,-0.0083,-0.008,-0.0085,-0.0094,-0.0132,-0.0139,-0.011,-0.0169,-0.0178,-0.0204,-0.0196,-0.0216,-0.0218,-0.0273,-0.0273,-0.0273,-0.0211,0,0,0,0,0,0,-0.0038,-0.0038,-0.0034,-0.0053,-0.0057,-0.0059,-0.0079,-0.0085,-0.0096,-0.0099,-0.0139,-0.0146,-0.0171,-0.02,-0.0207,-0.02,-0.022,-0.0273,-0.0273,-0.0273,-0.0213,-0.0209,-0.0205,0,0,0,0,0,-0.0037,-0.0024,-0.0034,-0.0035,-0.005,-0.0059,-0.0062,-0.0083,-0.0096,-0.0095,-0.0125,-0.0145,-0.0205,-0.0202,-0.021,-0.0203,-0.0274,-0.0273,-0.0273,-0.0215,-0.021,-0.0205,0,0,0,0,0,0,-0.0016,-0.0027,-0.0038,-0.003,-0.0044,-0.0065,-0.0065,-0.0081,-0.0103,-0.0107,-0.0145,-0.0155,-0.0175,-0.02,-0.0196,-0.0222,-0.0243,-0.0244,-0.0195,-0.0191,-0.0187,-0.0166,-0.0223,0,0,0,0,0,-0.0009,-0.0003,-0.0022,-0.0016,-0.002,-0.0043,-0.005,-0.0063,-0.0085,-0.0095,-0.0123,-0.0155,-0.0179,-0.0194,-0.022,-0.0233,-0.0263,-0.0235,-0.0231,-0.0227,-0.0216,-0.0263,-0.0262,-0.0273,-0.0273,-0.0273,0,0,0.0001,-0.0005,-0.0002,-0.0011,-0.0022,-0.0017,-0.0048,-0.0053,-0.005,-0.01,-0.0108,-0.0143,-0.0181,-0.0195,-0.0206,-0.0215,-0.0241,-0.0227,-0.0224,-0.0215,-0.0263,-0.0262,-0.0261,-0.0273,-0.0273,-0.0273,0,0,0.0028,0.0019,0.0033,0.0027,0.0013,0.0001,0.0001,-0.002,-0.0032,-0.0046,-0.0081,-0.0108,-0.0147,-0.0168,-0.0185,-0.0176,-0.0219,-0.019,-0.015,-0.0195,-0.0194,-0.0194,-0.0228,-0.0231,-0.0186,-0.0186,-0.0186,0,0.004,0.0056,0.0035,0.0048,0.0048,0.0013,0.003,0.0017,-0.0012,-0.002,-0.0041,-0.0097,-0.013,-0.0145,-0.0141,-0.0164,-0.0198,-0.0162,-0.0189,-0.0189,-0.019,-0.0225,-0.023,-0.0183,-0.0183,-0.0184,-0.0184,0,0.0078,0.0089,0.0098,0.0104,0.0102,0.0109,0.009,0.0083,0.006,0.0039,0.0012,-0.0035,-0.0068,-0.0084,-0.0109,-0.0127,-0.0152,-0.0179,-0.0196,-0.0185,-0.0223,-0.0229,-0.0179,-0.018,-0.0181,-0.0181,0,0,0.0109,0.0123,0.0126,0.0138,0.0133,0.0136,0.0144,0.0136,0.0138,0.0099,0.0095,0.0049,0.0013,-0.0008,-0.0049,-0.0083,-0.0117,-0.0127,-0.0131,-0.0152,-0.0214,-0.0212,-0.0218,-0.0155,-0.0156,-0.0156,-0.0238,0,0.0144,0.018,0.0178,0.0212,0.0228,0.0208,0.022,0.0207,0.0181,0.0166,0.0113,0.009,0.0045,0.0028,-0.0014,-0.0092,-0.013,-0.0092,-0.023,-0.0233,-0.0226,-0.0223,-0.0158,-0.0242,-0.0244,-0.0245,-0.0245,0,0.0184,0.0201,0.0243,0.0265,0.0272,0.0289,0.0295,0.03,0.027,0.0249,0.0212,0.0162,0.0115,0.0069,-0.0051,-0.0028,-0.0111,-0.0174,-0.018,-0.02,-0.0241,-0.026,-0.0256,-0.0255,-0.0254,-0.0254,-0.0253,0,0.0213,0.0248,0.0283,0.0291,0.031,0.0328,0.0338,0.0324,0.0333,0.0301,0.0295,0.0219,0.0186,0.0074,-0.005,-0.0059,-0.0188,-0.0221,-0.0295,-0.0296,-0.0302,-0.0301,-0.0308,-0.0307,-0.0307,-0.0307,-0.0307,0,0.0249,0.0277,0.0302,0.032,0.0363,0.0365,0.0401,0.0396,0.0396,0.0408,0.034,0.0326,0.0183,0.0091,-0.0033,-0.0173,-0.018,-0.0282,-0.0316,-0.0274,-0.0269,-0.0306,-0.0304,-0.031,-0.0309,-0.0309,-0.0308,0,0.0272,0.029,0.0331,0.0363,0.038,0.0409,0.0452,0.047,0.0467,0.0482,0.0478,0.0402,0.0284,0.0139,-0.004,-0.0139,-0.028,-0.0331,-0.0258,-0.0288,-0.0364,-0.0358,-0.0422,-0.0423,-0.0423,-0.0424,-0.0424,0,0.0285,0.031,0.0361,0.0389,0.0407,0.0452,0.0484,0.0504,0.0526,0.0526,0.0533,0.0443,0.037,0.0134,-0.0028,-0.0255,-0.0293,-0.0365,-0.0376,-0.0348,-0.0375,-0.0369,-0.0363,-0.0425,-0.0425,-0.0425,-0.0425,0,0.0298,0.0319,0.0348,0.0409,0.0453,0.0505,0.0553,0.0575,0.0598,0.0604,0.0574,0.0458,0.0329,0.0141,-0.0028,-0.0196,-0.0317,-0.0371,-0.0372,-0.0382,-0.0352,-0.0377,-0.0371,-0.0427,-0.0427,-0.0427,-0.0426,0,0.0299,0.0319,0.0361,0.0415,0.0477,0.0532,0.0561,0.0588,0.0614,0.0618,0.0607,0.0474,0.0403,0.0171,0.0012,-0.0145,-0.0197,-0.0259,-0.0267,-0.0267,-0.02,-0.0137,-0.0169,0,0,0,0,0,0.0287,0.0306,0.0359,0.0414,0.0483,0.0517,0.0593,0.0617,0.0646,0.0632,0.0623,0.0505,0.0283,0.0189,0.0031,-0.002,-0.0238,-0.0213,-0.0316,-0.0436,-0.0434,-0.0382,0,0,0,0,0,0,0.0271,0.0311,0.0345,0.0409,0.0444,0.0516,0.0562,0.0589,0.0583,0.0596,0.0483,0.0448,0.0232,0.0365,0.0019,-0.0027,-0.0117,-0.0309,-0.0313,-0.0437,-0.0435,-0.0434,-0.0379,0,0,0,0,0]}]]